Wind_Speed
6 5 4 3 2 1 0 1 2 3 3 4 5 6 7 8 9 10 11 12 13 14 15 16 16 17 17 18 17 17 15 14 13 11 9 6 4 3 3 4 4 5 7
7 6 5 4 3 2 0 1 1 2 3 4 5 6 7 7 8 9 10 12 13 13 14 15 16 17 17 18 18 17 16 14 13 12 10 8 6 4 3 3 4 5 6
8 7 6 5 4 3 2 1 1 2 2 3 4 5 6 7 7 8 9 11 12 13 13 14 15 16 17 18 18 17 17 16 14 13 11 9 7 5 3 2 2 4 5
9 8 7 7 6 4 3 2 2 2 2 2 3 4 5 6 7 8 9 10 11 12 13 13 14 15 16 17 18 17 17 16 15 14 12 10 8 6 5 3 2 2 3
8 8 9 8 7 5 4 4 3 2 2 3 3 4 5 5 6 7 8 9 10 11 12 13 14 15 15 16 17 17 16 16 15 15 13 12 10 8 6 5 3 2 1
9 9 9 9 7 6 5 5 4 3 3 3 2 3 4 5 6 6 7 9 10 11 12 13 13 14 14 15 16 16 16 15 15 15 13 12 11 9 7 5 4 3 1
10 10 9 9 8 7 6 6 5 4 3 3 2 2 3 4 5 6 7 8 9 11 12 12 13 14 14 14 14 14 14 14 14 14 13 12 11 10 8 6 6 4 2
11 10 10 9 9 8 7 7 5 5 4 3 2 1 2 3 4 5 6 7 8 10 11 12 13 14 13 13 13 13 13 13 13 14 13 12 11 10 9 7 6 5 4
12 11 11 10 10 9 8 7 6 5 4 3 2 1 1 2 3 4 5 7 8 9 10 11 12 13 13 13 13 13 13 13 12 12 12 12 11 10 9 8 7 6 5
13 12 12 12 11 10 9 8 7 6 5 4 3 1 1 2 2 3 5 6 7 8 9 10 11 13 13 13 13 13 13 12 12 11 11 12 11 10 9 8 8 7 7
14 13 13 13 12 11 10 9 8 7 6 5 4 3 2 2 3 4 5 6 7 8 8 9 11 12 13 13 13 13 13 13 12 11 11 11 11 10 10 10 9 9 9
14 14 14 13 13 12 11 10 9 8 8 7 6 5 4 4 4 5 6 7 7 8 9 10 11 11 12 12 13 13 14 14 13 13 12 12 11 11 11 11 11 12 12
16 15 14 14 13 13 12 11 11 10 9 8 8 7 6 6 6 7 7 8 9 9 10 12 12 12 12 13 13 14 14 15 15 15 14 14 13 13 13 13 14 14 15
16 15 15 15 14 13 13 12 12 11 11 10 9 9 8 8 8 9 9 10 11 12 12 13 13 13 13 14 15 15 16 17 17 17 17 17 16 16 16 16 17 17 18
16 15 15 15 15 15 14 13 13 12 12 11 11 11 10 10 10 11 11 12 13 13 14 14 14 15 15 16 17 18 19 19 19 19 20 20 19 19 19 20 20 21 22
16 16 16 16 16 16 15 15 14 14 14 13 13 13 12 12 12 13 13 14 15 15 16 16 17 17 18 19 20 21 21 22 22 22 23 23 22 22 23 23 24 25 25
17 17 17 17 16 16 16 16 16 16 15 15 15 14 14 14 15 15 16 16 17 18 18 19 20 20 21 22 22 23 24 24 25 25 25 26 26 26 26 27 28 29 30
18 18 17 17 17 17 17 17 17 17 17 17 16 16 16 16 17 18 18 19 19 20 21 21 23 24 24 25 25 26 27 27 27 28 28 28 28 29 30 31 32 33 34
19 19 18 18 18 18 18 18 18 18 18 19 18 18 19 19 20 20 20 21 22 22 23 24 25 26 27 27 28 29 29 30 30 31 31 31 32 32 33 34 35 36 37
19 20 20 20 20 20 19 19 20 20 20 20 20 20 21 21 22 23 23 24 24 25 26 26 27 28 29 30 31 32 32 33 34 34 34 34 35 36 36 37 38 39 40
20 20 20 20 21 20 20 20 21 21 21 21 22 23 23 23 24 25 26 26 27 27 28 29 30 31 32 33 34 34 35 36 36 36 37 37 37 38 39 40 41 42 43
21 21 21 22 22 22 22 22 22 22 23 23 23 24 25 26 26 27 28 29 29 30 30 31 32 33 34 35 36 37 38 38 38 39 39 39 40 40 41 42 43 45 46
22 22 23 23 23 23 23 23 24 24 24 25 26 26 27 28 29 29 30 30 31 32 33 34 35 36 37 38 38 39 40 40 40 40 40 41 42 42 44 45 47 48 49
23 23 23 24 24 25 25 26 26 26 26 27 28 28 29 30 31 31 32 33 34 34 35 36 37 38 39 40 41 41 42 42 42 42 42 43 44 45 47 48 50 51 52
25 25 26 26 27 27 28 28 28 28 28 29 30 31 32 32 33 34 35 35 36 37 38 39 40 41 42 43 43 44 43 43 44 45 45 46 47 48 49 51 52 53 55
27 27 27 28 29 29 29 29 29 30 31 31 32 33 34 35 36 37 38 38 40 40 41 42 43 44 45 45 45 45 46 46 47 47 48 49 50 51 52 54 55 56 57
Wind_Direction
212 209 208 211 205 196 40 30 26 26 26 25 28 31 31 36 39 35 35 35 34 34 33 33 34 33 32 32 32 33 37 40 42 42 44 53 74 98 133 162 178 184 193
212 215 215 211 204 201 179 48 44 47 38 36 37 36 39 43 42 38 37 36 35 34 34 34 34 33 33 33 34 36 38 40 40 41 44 50 63 78 102 142 171 181 191
216 218 218 209 207 207 196 164 113 79 56 52 48 45 45 44 42 40 38 35 33 32 33 32 31 31 33 35 36 37 39 40 41 43 46 52 60 65 80 111 153 184 197
219 216 210 204 203 199 189 180 153 109 87 85 68 55 48 47 45 41 37 34 32 32 32 31 30 32 34 35 35 35 37 40 42 43 45 49 54 58 66 87 115 170 196
216 210 204 199 199 198 191 183 164 143 123 114 92 70 57 52 48 43 38 34 32 31 29 29 28 30 32 32 32 34 36 39 42 42 44 45 48 54 59 65 74 97 181
213 206 203 198 198 196 189 181 173 162 147 134 110 81 59 50 43 39 34 31 29 27 25 24 24 26 27 28 30 33 35 37 39 41 43 44 46 48 49 50 57 60 67
209 205 204 202 201 198 189 181 176 169 159 152 132 92 59 41 34 31 28 25 24 22 21 20 20 22 23 25 27 30 31 33 35 37 39 41 42 41 42 41 38 36 18
207 205 207 206 202 200 192 185 184 180 174 167 153 111 50 29 27 24 21 19 17 17 17 17 17 18 20 22 24 25 26 26 29 31 33 32 33 34 35 33 29 22 3
209 208 208 205 203 201 197 193 195 194 189 183 174 149 46 14 15 15 11 10 11 10 11 15 18 17 18 19 20 20 19 19 20 21 22 22 23 23 25 22 16 8 353
210 213 212 210 209 206 203 201 201 201 202 201 200 206 296 334 346 350 352 355 358 1 6 12 12 13 13 13 12 12 12 11 10 11 11 11 11 10 8 5 1 355 347
211 213 214 213 212 210 210 209 210 210 214 217 224 236 271 300 313 323 332 342 348 352 357 359 2 4 5 6 6 5 3 2 359 357 358 359 357 355 352 347 343 340 334
210 213 217 215 213 214 215 217 218 221 224 228 234 243 263 284 300 309 318 327 333 339 344 345 348 350 352 354 355 355 354 352 350 347 346 345 342 339 335 332 328 325 324
212 215 218 217 218 220 221 223 227 228 230 234 240 248 263 279 291 299 308 316 322 327 331 334 335 337 340 342 343 344 344 343 341 339 336 333 329 327 325 322 318 316 314
217 219 220 222 224 226 227 230 233 235 236 240 246 253 263 275 286 292 300 307 312 316 319 322 325 327 329 331 333 334 334 332 331 330 327 324 321 318 316 314 312 310 309
223 224 225 227 230 232 233 235 238 240 242 246 251 257 265 274 282 288 295 302 307 308 310 314 317 319 320 321 323 324 325 325 324 323 320 317 315 312 310 308 307 306 305
227 228 230 231 234 236 237 239 242 244 247 251 255 260 266 274 281 287 292 298 302 304 303 305 308 312 313 315 316 317 317 318 317 316 314 312 310 308 305 305 304 304 303
231 233 233 234 236 238 240 242 245 247 250 254 258 262 269 276 283 287 290 294 298 301 301 300 303 306 309 310 311 312 312 312 311 310 310 308 306 305 303 303 302 302 302
234 236 237 239 240 242 244 246 248 250 253 257 260 266 272 279 283 286 289 293 295 298 300 300 301 303 306 306 307 308 308 309 307 306 305 305 303 302 301 301 302 302 302
237 239 239 241 243 246 248 249 251 253 256 259 263 268 273 278 283 285 287 291 294 296 298 300 301 303 304 304 304 305 306 306 305 304 304 303 301 301 300 300 300 301 301
241 243 242 244 247 250 251 252 253 256 258 261 265 270 275 278 282 284 286 290 293 295 297 298 300 302 302 302 302 303 304 304 303 303 302 301 300 300 299 299 300 300 300
246 247 246 248 250 252 253 253 254 257 260 264 269 273 277 280 282 284 286 289 292 294 295 297 298 300 302 301 302 302 302 302 302 302 301 300 300 300 299 299 300 300 300
249 249 249 250 251 252 253 253 255 259 264 268 272 275 278 280 282 284 286 289 291 293 294 296 298 300 301 302 302 301 301 301 301 301 301 300 300 299 299 299 300 300 301
251 251 251 252 252 254 255 256 259 263 267 270 273 275 278 280 282 284 286 288 290 292 293 295 297 299 300 301 302 302 302 301 300 301 301 300 300 299 299 300 301 301 302
252 253 254 254 255 256 257 259 262 266 269 271 274 276 279 281 283 285 287 289 290 291 293 294 296 298 299 300 301 302 302 301 300 300 300 300 300 300 300 301 302 302 302
254 255 256 256 258 259 260 263 265 268 270 272 275 278 280 282 284 286 287 289 290 291 293 294 295 297 298 299 300 301 301 301 300 300 299 299 300 300 301 302 302 303 303
256 257 258 259 260 261 263 265 267 269 271 274 276 279 281 283 284 286 287 289 290 291 292 293 295 297 298 299 300 300 300 300 300 300 300 300 300 300 301 302 303 303 303
Height
5892 5893 5894 5894 5895 5895 5895 5896 5895 5895 5895 5894 5893 5892 5890 5889 5887 5885 5883 5881 5879 5876 5874 5871 5869 5866 5864 5861 5858 5855 5853 5851 5849 5848 5846 5845 5845 5845 5846 5846 5847 5848 5849
5891 5892 5893 5894 5894 5895 5895 5895 5895 5895 5895 5894 5893 5892 5891 5889 5888 5886 5884 5882 5880 5878 5875 5873 5870 5868 5865 5862 5860 5857 5854 5852 5850 5849 5848 5847 5847 5846 5846 5847 5847 5848 5849
5890 5891 5892 5893 5894 5894 5895 5895 5895 5895 5894 5894 5893 5892 5891 5890 5889 5887 5886 5884 5881 5879 5877 5874 5872 5870 5867 5864 5862 5859 5856 5854 5852 5850 5849 5848 5847 5847 5847 5847 5848 5848 5849
5889 5890 5891 5892 5893 5894 5894 5895 5895 5895 5894 5894 5894 5893 5892 5891 5890 5888 5886 5885 5883 5880 5878 5876 5874 5871 5869 5866 5863 5861 5858 5856 5854 5852 5850 5849 5848 5848 5848 5848 5848 5849 5849
5887 5889 5890 5891 5892 5893 5894 5894 5895 5895 5894 5894 5894 5893 5893 5892 5890 5889 5887 5886 5884 5881 5879 5877 5875 5872 5870 5867 5865 5862 5860 5857 5855 5854 5852 5851 5850 5849 5849 5849 5849 5849 5850
5886 5887 5889 5890 5891 5892 5893 5893 5894 5894 5894 5894 5894 5893 5893 5892 5891 5889 5888 5886 5884 5882 5880 5878 5875 5873 5870 5868 5865 5863 5861 5859 5857 5855 5854 5852 5851 5851 5850 5850 5850 5850 5850
5884 5886 5888 5889 5890 5891 5892 5893 5893 5894 5894 5894 5894 5893 5893 5892 5891 5889 5888 5887 5885 5883 5881 5878 5876 5873 5871 5868 5866 5864 5862 5860 5858 5857 5855 5854 5853 5852 5851 5851 5851 5850 5851
5883 5884 5886 5888 5889 5890 5891 5892 5893 5893 5894 5893 5893 5893 5892 5892 5891 5889 5888 5887 5885 5883 5881 5879 5876 5873 5871 5868 5866 5864 5862 5861 5859 5858 5856 5855 5854 5853 5852 5852 5851 5851 5851
5881 5883 5884 5886 5888 5889 5890 5891 5892 5892 5893 5893 5893 5892 5892 5891 5890 5889 5888 5887 5885 5883 5881 5879 5877 5874 5871 5869 5866 5864 5863 5861 5859 5858 5857 5856 5855 5853 5853 5852 5851 5851 5850
5879 5881 5883 5884 5886 5887 5889 5890 5891 5891 5892 5892 5892 5891 5891 5891 5890 5889 5888 5886 5885 5883 5881 5879 5876 5874 5871 5869 5866 5865 5863 5861 5860 5858 5857 5856 5854 5853 5852 5852 5851 5850 5849
5877 5879 5881 5882 5884 5885 5887 5888 5889 5890 5890 5890 5891 5890 5890 5890 5889 5888 5887 5886 5884 5882 5880 5878 5876 5874 5871 5869 5867 5865 5863 5861 5859 5858 5857 5855 5854 5853 5851 5850 5850 5849 5848
5875 5877 5878 5880 5882 5883 5885 5886 5887 5888 5888 5889 5889 5889 5889 5888 5888 5887 5886 5885 5883 5881 5880 5878 5876 5873 5871 5869 5867 5864 5862 5861 5859 5857 5856 5854 5853 5851 5850 5849 5848 5847 5846
5873 5874 5876 5878 5879 5881 5882 5884 5885 5886 5886 5887 5887 5887 5887 5886 5886 5885 5884 5883 5882 5880 5878 5876 5874 5872 5870 5868 5866 5864 5861 5859 5858 5856 5854 5852 5850 5849 5847 5846 5845 5844 5842
5870 5871 5873 5875 5877 5878 5880 5881 5882 5883 5883 5884 5884 5884 5884 5884 5883 5883 5882 5881 5879 5878 5876 5874 5872 5870 5868 5866 5864 5862 5859 5857 5855 5853 5851 5849 5847 5845 5844 5843 5841 5840 5838
5867 5869 5870 5872 5874 5875 5876 5878 5879 5880 5880 5881 5881 5881 5881 5881 5881 5880 5879 5878 5877 5875 5873 5872 5870 5868 5866 5863 5861 5859 5856 5854 5852 5849 5847 5845 5843 5841 5839 5838 5836 5834 5833
5863 5865 5867 5869 5870 5872 5873 5874 5875 5876 5877 5877 5878 5878 5878 5878 5877 5876 5876 5874 5873 5872 5870 5868 5866 5864 5862 5860 5857 5855 5852 5849 5847 5844 5842 5840 5838 5835 5834 5832 5830 5828 5826
5860 5861 5863 5865 5866 5868 5869 5870 5871 5872 5873 5873 5874 5874 5874 5874 5873 5872 5871 5870 5869 5867 5866 5864 5862 5860 5857 5855 5852 5850 5847 5844 5841 5838 5836 5833 5831 5829 5827 5825 5823 5820 5818
5855 5857 5859 5861 5862 5863 5865 5866 5867 5868 5868 5869 5869 5869 5869 5869 5868 5867 5866 5865 5864 5862 5860 5859 5856 5854 5852 5849 5847 5844 5840 5837 5834 5832 5829 5826 5823 5821 5818 5816 5814 5811 5809
5851 5853 5855 5856 5858 5859 5860 5861 5862 5863 5863 5864 5864 5864 5864 5864 5863 5862 5861 5860 5858 5857 5855 5853 5850 5848 5845 5843 5840 5837 5833 5830 5827 5824 5821 5818 5815 5812 5810 5807 5805 5802 5799
5847 5848 5850 5851 5853 5854 5855 5856 5857 5858 5858 5858 5859 5859 5858 5858 5857 5856 5855 5853 5852 5850 5848 5846 5843 5841 5838 5835 5832 5829 5826 5822 5819 5816 5812 5809 5806 5803 5800 5797 5794 5791 5788
5842 5843 5845 5846 5847 5848 5849 5850 5851 5852 5852 5852 5852 5852 5852 5851 5850 5849 5848 5846 5845 5843 5841 5838 5836 5833 5830 5827 5824 5820 5817 5813 5809 5806 5802 5799 5795 5792 5789 5785 5782 5778 5775
5836 5837 5839 5840 5841 5842 5843 5844 5845 5845 5845 5846 5846 5845 5845 5844 5843 5842 5840 5839 5837 5835 5832 5830 5827 5824 5821 5818 5814 5810 5807 5803 5799 5795 5791 5788 5784 5780 5777 5773 5769 5765 5761
5830 5832 5833 5834 5835 5836 5837 5838 5838 5838 5839 5839 5838 5838 5837 5836 5835 5834 5832 5830 5828 5826 5823 5821 5818 5815 5811 5808 5804 5800 5796 5792 5788 5784 5780 5776 5772 5768 5764 5760 5756 5752 5747
5824 5825 5827 5828 5828 5829 5830 5831 5831 5831 5831 5831 5831 5830 5829 5828 5827 5825 5823 5821 5819 5816 5814 5811 5808 5804 5801 5797 5793 5789 5785 5780 5776 5772 5768 5764 5760 5756 5752 5747 5742 5737 5732
5818 5819 5820 5821 5821 5822 5823 5823 5823 5823 5823 5823 5822 5821 5820 5819 5818 5816 5814 5812 5809 5806 5804 5800 5797 5794 5790 5786 5782 5777 5773 5768 5764 5760 5756 5752 5747 5743 5738 5733 5727 5722 5716
5810 5811 5812 5813 5814 5814 5814 5815 5815 5815 5814 5814 5813 5812 5811 5809 5808 5806 5804 5801 5798 5795 5792 5789 5785 5782 5778 5773 5769 5765 5761 5756 5751 5747 5743 5738 5733 5728 5723 5717 5712 5705 5699